DELTA 1 DEB

Satellite information

Favourite Embed

Satellite Type and Status

DEBRISIN ORBIT

Key statistics

Satellite DELTA 1 DEB at a glance.

Uptime

17289

Days in orbit

Revolutions

≈ 14.4

Per day

Orbit

SSO

Sun Synchronous Orbit

Inclination

99.1

Latest

Satellite identification and parameters

Extended collection of information and parameters for DELTA 1 DEB.

Object identification

Identified? True

Debris? True

Object name: DELTA 1 DEB

International designator: 1978-026HJ

Object number (NORAD): 18779

Object ID (CCSDS): 18779

Country: UNITED STATES OF AMERICA (US)

Current information (Y/N): Y

RCS size: SMALL

Orbital parameters

Period: 100.274 minutes

Inclination: 99.0637 deg

SMA: 7149.658 km

Apoapsis: 821.084 km

Periapsis: 721.961 km

RAAN: 177.6811 deg

Eccentricy: 0.006932

Argument of periapsis: 89.6158 deg

Mean anomaly: 299.44 deg

Mean motion: 14.36067585 rev/day

Mean motion (dot): 0.00003553 rev/day2

B* drag term: 0.0012036 1/REarth

Two-line elements (TLE)

Creation date: July 4, 2025, 6:26 a.m.

Reference frame: TEME

Reference center: EARTH

Epoch: July 3, 2025, 10:47 p.m. UTC

TLE line 0: 0 DELTA 1 DEB

TLE line 1: 1 18779U 78026HJ 25184.94963284 .00003553 00000-0 12036-2 0 9990

TLE line 2: 2 18779 99.0637 177.6811 0069320 89.6158 299.4400 14.36067585943353

Live tracking on map

Real-time ground track for satellite DELTA 1 DEB.

In-orbit conjunctions

A list of the most updated potential collisions computed for object DELTA 1 DEB.

Target Orbit TCA Probability of collision Miss distance Type
CZ-6A DEB LEO 2025-05-26 03:08:56 0.0002701995 46.0 (m) DEBRIS

Associated space launch

Earth observation satellite

DELTA 1 DEB was lifted into orbit during the mission ‘Delta 2910 | Landsat 3’, on board a Delta 2910 space rocket.

The launch took place on March 5, 1978, 5:54 p.m. from Space Launch Complex 2W.

For more information about the launch, click the button.

Launch to space Delta 2910 | Landsat 3
Delta 2910 | Landsat 3

Agency: N/A

Status: Launch Successful

Launch date: March 5, 1978, 5:54 p.m. UTC

Rocket: Delta 2910

Launch pad: Space Launch Complex 2W

Location: Vandenberg SFB, CA, USA

...

Latest news about this satellite

There are no fresh news available about this satellite. Check back as we update our databases every day.


Newsletter sign-up

Weekly statistics, charts and insights to help you stay on top of the space industry.